{"data":{"norad_id":66900,"epoch":"2026-05-25T02:16:48.920160Z","epoch_age_seconds":67153,"freshness":"FRESH","line1":"1 66900U 25283Y   26145.09501065  .00009068  00000+0  27919-3 0  9998","line2":"2 66900  53.1594  29.1623 0001013  78.7455 281.3661 15.34398299 27542","mean_motion":15.34398299,"eccentricity":0.0001013,"inclination_deg":53.1594,"raan_deg":29.1623,"arg_perigee_deg":78.7455,"mean_anomaly_deg":281.3661,"bstar":0.00027919,"rev_number":2754,"period_min":93.847862118883,"perigee_km":462.01531831377,"apogee_km":463.40127357072,"semimajor_km":6840.8452959422,"source":"CELESTRAK","updated_at":"2026-05-25T13:38:21.382913Z"}}